User: anonymous   Login
Location: Caltech
(34.1382°N, 118.1253°W)
Time: 01:21:42
(UTC-08:00)
Language:

Iridium 14 - Orbit

View from above orbital plane
View from above orbital plane
View from above satellite
View from above satellite

Ground track
Ground track

The orbit data is extracted from the following two-line orbital elements,

1 25777U 99032A   14352.48188657  .00000694  00000-0  24065-3 0  2052
2 25777 086.3972 244.9955 0002432 101.7154 242.3182 14.34232600823991
Epoch (UTC): 18 December 2014 11:33:55
Eccentricity: 0.0002432
inclination: 86.3972°
perigee height: 776 km
apogee height: 779 km
right ascension of ascending node: 244.9955°
argument of perigee: 101.7154°
revolutions per day: 14.34232600
mean anomaly at epoch: 242.3182°
orbit number at epoch: 82399

The dashed part of the orbit path shows where the satellite is in the earth's shadow,  

DLR